Погода в Соболеве

Россия / Камчатский край     54°17′55″N   155°56′45″E
темп.,
°C
ветер,
м/с
пор.,
м/с
влажн.,
%
обл.,
%
осадки,
мм/ч
давл.,
гПа
погр.,
м
15 мая, сб
сб1500:00+1ссз45771 0.0 102197
03:000с35805 0.0 102380
06:000с34785 0.0 102356
09:00+5с44605 0.0 1024387
12:00+9ссз44555 0.0 1024827
15:00+9сз65545 0.0 1024929
18:00+8сз55585 0.0 1023580
21:00+5сз56723 0.0 1023141
16 мая, вс
вс1600:00+4с11765 0.0 102410
03:00+4юв1178100 0.0 102210
06:00+3ююв4582100 0.0 102165
09:00+7ю6966100 0.0 1021523
12:00+9ю81143100 0.0 1019847
15:00+9ю91348100 0.0 10171017
18:00+6ю91568100 0.3 1015794
21:00+3ю142084100 0.2 1014898
17 мая, пн
пн1700:00+3ююв132193100 2.2 10111172
03:00+3ююв152190100 1.4 10091131
06:00+3ююв132194100 1.7 10081093
09:00+3ю132094100 0.2 10071080
12:00+4ю121891100 0.3 10061203
15:00+5ю111788100 0.8 10051170
18:00+4ю91591100 3.1 1004950
21:00+4ю81397100 1.1 1004852
18 мая, вт
вт1800:00+4ю81297100 2.3 1003769
03:00+4ю71296100 0.2 1003746
06:00+3ю71094100 0.3 1004623
09:00+4ююз6994100 0.1 1005638
12:00+7ю897473 0.1 1005807
15:00+6ююз71184100 1.1 1005697
18:00+5ю101584100 1.6 1004558
21:00+5ю11158798 0.1 1005790
19 мая, ср
ср1900:00+3ююз81192100 0.1 1007724
03:00+3ююз6892100 0.0 1008663
06:00+3ю5890100 0.0 1008564
09:00+4ю7985100 0.0 1008558
12:00+5ююв81393100 2.9 1006498
15:00+7ю111786100 2.6 1005675
18:00+7ю131778100 2.6 1005663
21:00+5ю121684100 0.4 1006650